Temp
6 6 6 6 6 6 5 5 4 4 4 4 4 3 3 3 4 5 4 4 5 6 6 6 6 6 5 6 10 11 12 12 12 12 12 12 12 12 12 12 12 12 12
6 6 5 5 5 5 5 5 4 4 4 4 4 4 3 3 3 3 3 3 4 5 6 6 6 6 6 6 8 10 12 12 11 11 11 12 12 12 12 12 12 11 12
6 5 5 5 5 5 5 4 4 4 3 3 3 4 4 3 3 3 3 3 3 3 4 5 6 6 6 7 6 8 10 12 12 11 11 12 12 12 12 11 11 11 11
6 5 5 4 4 4 4 4 4 4 3 4 4 4 4 4 3 3 3 3 3 3 3 4 5 7 7 6 7 7 8 10 11 11 11 11 11 12 12 11 11 11 11
6 5 4 4 4 4 4 4 4 3 3 3 3 4 4 3 3 3 3 3 3 3 3 3 4 5 7 6 6 7 7 8 10 10 11 11 11 11 11 11 11 11 11
6 5 5 4 4 3 3 4 3 3 3 3 3 4 4 4 3 3 3 3 3 3 3 4 4 5 6 7 7 6 6 7 8 10 11 11 11 11 11 11 11 11 11
5 5 4 4 3 3 3 3 3 3 3 3 3 3 3 3 3 3 3 3 3 3 3 3 4 5 4 5 6 7 6 6 6 8 10 10 10 11 11 11 11 11 11
6 5 4 3 3 3 3 3 3 3 3 3 3 2 3 3 4 4 3 3 3 3 3 3 3 4 3 4 5 7 7 5 4 5 9 10 10 11 11 11 11 10 11
5 5 4 3 3 2 2 2 2 2 2 2 2 2 2 3 4 4 3 3 3 3 3 3 3 3 3 3 4 5 6 5 5 5 6 9 10 11 11 11 11 11 10
4 4 4 3 3 2 2 1 2 2 2 2 2 2 2 2 2 3 3 3 2 3 2 3 3 3 3 4 4 4 5 5 5 4 5 8 10 11 11 11 10 10 10
3 3 3 3 3 2 2 1 1 1 1 1 1 2 2 2 2 1 2 3 3 2 2 3 3 3 3 3 4 3 4 4 5 5 6 7 10 11 11 11 10 10 10
2 2 3 2 2 2 2 1 1 1 1 1 1 1 1 2 2 1 1 2 3 3 3 3 3 3 3 3 3 3 4 4 4 5 6 7 9 10 11 11 10 10 10
1 1 1 1 1 1 1 1 0 0 0 0 0 0 1 1 1 1 1 1 2 4 3 3 3 3 3 3 3 3 4 4 4 5 7 10 9 10 11 11 11 10 10
-1 -1 -1 -1 -1 -0 0 -0 0 0 -0 -0 -0 0 0 1 1 1 1 1 1 3 4 3 3 3 3 3 3 3 3 4 4 6 8 10 10 10 11 11 10 10 11
-3 -3 -3 -4 -3 -3 -2 -1 -2 -2 -1 -1 -1 -0 -0 -0 -0 -0 0 1 1 2 3 4 3 3 3 4 4 4 3 4 5 7 9 10 10 10 10 11 10 11 11
-4 -5 -5 -5 -5 -5 -4 -3 -3 -2 -2 -2 -1 -2 -1 -1 -1 -1 -0 0 1 0 1 4 4 4 3 4 3 3 4 4 5 7 10 10 10 10 11 10 10 10 10
-6 -5 -6 -6 -6 -6 -6 -5 -4 -3 -3 -2 -2 -2 -2 -2 -2 -1 -1 -1 0 0 1 3 4 4 3 4 4 4 3 4 6 8 9 9 10 10 10 10 10 10 9
-5 -5 -5 -5 -5 -6 -6 -6 -5 -4 -4 -3 -3 -4 -3 -2 -2 -2 -2 -2 -1 0 0 1 3 3 3 3 4 4 4 5 6 8 10 10 10 11 10 10 9 9 9
-5 -5 -5 -5 -5 -6 -6 -6 -6 -6 -5 -5 -4 -4 -4 -3 -2 -2 -3 -2 -1 -0 0 1 2 3 3 3 3 4 5 5 6 8 9 10 10 10 10 10 10 9 9
-5 -5 -5 -5 -5 -5 -5 -6 -6 -6 -6 -6 -5 -5 -4 -4 -3 -3 -2 -2 -2 -1 -0 0 2 3 3 3 3 4 4 5 6 8 9 10 10 10 9 9 9 9 9
-5 -5 -5 -6 -6 -5 -5 -6 -6 -6 -6 -6 -6 -5 -5 -5 -4 -3 -2 -2 -2 -1 -1 0 2 3 3 3 3 4 4 5 7 9 10 10 9 10 9 9 9 8 8
-5 -6 -6 -6 -6 -6 -6 -6 -6 -6 -6 -6 -6 -6 -5 -5 -5 -3 -3 -2 -2 -1 -1 1 2 3 3 3 4 5 5 4 7 9 9 9 9 9 8 8 8 8 8
-6 -6 -6 -6 -6 -6 -6 -6 -6 -6 -6 -6 -6 -6 -6 -5 -5 -3 -3 -3 -2 -1 -0 1 2 2 4 4 5 5 5 7 7 8 9 8 8 9 8 8 8 8 7
-6 -6 -6 -6 -6 -6 -6 -6 -6 -6 -6 -6 -6 -6 -5 -5 -5 -4 -3 -3 -2 -1 0 0 1 2 4 4 4 5 5 7 8 7 8 8 8 8 8 8 7 7 7
-6 -6 -6 -7 -7 -7 -6 -6 -6 -6 -6 -6 -6 -6 -5 -5 -4 -4 -3 -3 -2 -1 -0 0 1 3 4 4 4 6 6 7 7 8 8 8 8 8 8 7 7 7 7
-6 -6 -6 -6 -6 -6 -6 -6 -6 -6 -6 -6 -6 -6 -5 -5 -4 -4 -3 -3 -2 -1 -1 0 2 3 4 4 5 5 7 8 7 8 8 8 8 8 7 7 7 7 7
Height
1540 1539 1539 1538 1538 1538 1538 1538 1537 1537 1537 1536 1535 1534 1534 1534 1534 1535 1535 1533 1534 1534 1534 1536 1538 1539 1541 1543 1544 1547 1551 1554 1558 1562 1566 1570 1573 1575 1577 1580 1582 1585 1587
1536 1536 1537 1536 1536 1536 1536 1535 1535 1534 1534 1533 1533 1533 1532 1531 1532 1532 1532 1532 1531 1531 1532 1533 1535 1536 1538 1540 1541 1544 1547 1552 1556 1560 1564 1568 1572 1575 1577 1580 1583 1585 1587
1533 1533 1532 1533 1533 1533 1532 1531 1531 1531 1530 1530 1530 1531 1530 1529 1529 1529 1529 1529 1529 1529 1530 1530 1532 1533 1535 1537 1539 1541 1544 1548 1553 1558 1562 1566 1570 1574 1577 1580 1583 1585 1588
1529 1528 1529 1529 1530 1529 1529 1528 1528 1527 1528 1528 1529 1529 1528 1528 1528 1527 1527 1526 1527 1528 1527 1528 1528 1530 1532 1534 1537 1539 1542 1545 1550 1555 1560 1565 1569 1573 1576 1580 1583 1586 1588
1527 1525 1524 1524 1525 1525 1524 1524 1524 1524 1524 1525 1525 1525 1525 1525 1525 1525 1525 1524 1524 1524 1525 1525 1525 1526 1529 1531 1534 1537 1539 1542 1547 1552 1557 1563 1567 1571 1575 1579 1583 1586 1588
1522 1520 1519 1519 1519 1518 1519 1519 1520 1520 1520 1521 1522 1522 1521 1521 1521 1521 1521 1522 1522 1521 1521 1522 1522 1524 1525 1528 1531 1534 1536 1540 1543 1549 1554 1559 1565 1569 1574 1578 1582 1586 1588
1516 1515 1513 1512 1513 1513 1513 1514 1515 1515 1515 1517 1517 1517 1516 1516 1516 1516 1517 1518 1518 1519 1519 1519 1520 1521 1522 1525 1528 1531 1534 1537 1541 1546 1551 1556 1562 1567 1572 1576 1581 1585 1589
1510 1507 1506 1505 1506 1507 1507 1508 1508 1509 1510 1512 1513 1514 1513 1513 1511 1510 1511 1513 1514 1516 1517 1517 1517 1518 1521 1523 1525 1528 1531 1535 1539 1544 1548 1553 1560 1566 1571 1575 1579 1584 1588
1503 1501 1499 1498 1498 1499 1500 1502 1503 1503 1504 1506 1508 1510 1510 1509 1508 1505 1508 1510 1511 1512 1514 1516 1516 1516 1518 1521 1523 1526 1528 1532 1535 1541 1545 1550 1557 1562 1568 1574 1578 1582 1587
1495 1494 1493 1493 1492 1492 1492 1495 1496 1497 1499 1500 1503 1504 1505 1507 1507 1507 1506 1507 1509 1510 1511 1513 1514 1514 1516 1519 1522 1523 1525 1529 1533 1537 1541 1547 1554 1560 1566 1572 1577 1582 1587
1488 1487 1486 1485 1484 1484 1484 1486 1489 1491 1492 1494 1496 1499 1501 1503 1505 1507 1505 1506 1507 1507 1509 1511 1512 1513 1514 1516 1520 1522 1524 1527 1531 1534 1537 1544 1551 1557 1563 1570 1576 1581 1586
1479 1479 1478 1477 1476 1475 1474 1475 1479 1482 1485 1487 1490 1493 1496 1498 1500 1503 1504 1504 1506 1506 1508 1509 1510 1511 1512 1514 1517 1520 1523 1525 1528 1531 1535 1540 1550 1555 1561 1568 1574 1580 1585
1471 1470 1468 1466 1466 1466 1467 1467 1469 1472 1476 1479 1483 1486 1490 1494 1496 1499 1502 1503 1504 1506 1507 1508 1508 1509 1511 1513 1515 1518 1521 1523 1525 1527 1531 1538 1546 1553 1559 1566 1572 1578 1583
1460 1458 1456 1455 1454 1455 1456 1457 1460 1462 1467 1471 1475 1480 1485 1489 1492 1495 1498 1502 1503 1503 1505 1506 1507 1508 1510 1513 1514 1516 1518 1520 1522 1524 1528 1536 1544 1550 1557 1563 1570 1577 1582
1450 1447 1445 1442 1441 1443 1445 1448 1451 1454 1459 1463 1468 1473 1478 1483 1486 1490 1494 1500 1502 1503 1503 1504 1506 1508 1510 1512 1514 1515 1516 1518 1520 1523 1527 1535 1543 1549 1555 1560 1568 1575 1582
1439 1436 1433 1430 1429 1428 1432 1437 1442 1445 1449 1453 1459 1465 1472 1478 1481 1486 1491 1496 1500 1501 1503 1503 1504 1505 1509 1511 1512 1513 1515 1517 1519 1522 1526 1535 1541 1548 1554 1560 1565 1574 1581
1432 1430 1428 1426 1424 1422 1422 1427 1432 1438 1442 1446 1452 1459 1465 1472 1475 1482 1487 1492 1496 1499 1501 1501 1503 1505 1508 1509 1510 1511 1513 1516 1518 1521 1526 1535 1542 1548 1555 1561 1567 1575 1580
1428 1425 1422 1421 1419 1418 1418 1420 1423 1428 1433 1438 1444 1452 1459 1465 1471 1477 1484 1489 1493 1497 1499 1502 1503 1504 1507 1509 1510 1512 1514 1517 1518 1521 1527 1536 1542 1548 1554 1562 1561 1575 1582
1423 1420 1417 1415 1414 1413 1414 1415 1418 1421 1425 1429 1436 1444 1453 1458 1464 1473 1480 1485 1490 1495 1497 1500 1503 1504 1507 1508 1510 1512 1513 1517 1518 1522 1529 1537 1541 1547 1556 1562 1569 1578 1583
1419 1415 1411 1408 1406 1406 1408 1410 1413 1416 1419 1423 1429 1437 1443 1453 1460 1468 1476 1482 1488 1493 1496 1499 1502 1504 1506 1508 1509 1511 1514 1515 1518 1523 1530 1537 1543 1550 1558 1564 1569 1580 1585
1416 1411 1406 1403 1400 1399 1401 1404 1407 1412 1416 1420 1426 1433 1440 1448 1456 1465 1473 1479 1486 1492 1495 1498 1500 1503 1505 1507 1508 1511 1514 1515 1519 1524 1530 1537 1544 1551 1560 1566 1571 1578 1585
1414 1408 1403 1399 1395 1393 1395 1400 1404 1409 1414 1418 1423 1429 1435 1443 1452 1463 1469 1478 1485 1491 1494 1498 1501 1503 1505 1506 1508 1511 1514 1515 1520 1527 1531 1538 1547 1554 1561 1566 1571 1579 1587
1414 1409 1404 1399 1396 1394 1396 1399 1403 1408 1412 1417 1423 1428 1434 1439 1449 1457 1467 1476 1483 1489 1493 1497 1500 1502 1506 1506 1508 1510 1513 1516 1518 1525 1530 1537 1547 1553 1561 1567 1574 1581 1589
1416 1412 1407 1404 1402 1401 1401 1403 1406 1409 1413 1418 1423 1428 1433 1439 1447 1457 1467 1475 1482 1488 1492 1494 1497 1499 1503 1506 1507 1510 1513 1516 1522 1526 1535 1538 1548 1553 1561 1570 1579 1586 1592
1420 1416 1413 1411 1408 1407 1408 1409 1410 1413 1416 1419 1423 1429 1434 1441 1450 1458 1468 1475 1482 1488 1491 1495 1498 1500 1503 1505 1507 1511 1514 1518 1521 1527 1535 1542 1547 1553 1564 1574 1581 1588 1595
1425 1422 1420 1418 1416 1414 1414 1414 1415 1417 1419 1422 1426 1432 1436 1443 1452 1462 1470 1476 1482 1487 1492 1496 1498 1500 1503 1506 1508 1511 1516 1519 1521 1528 1534 1542 1550 1557 1565 1575 1581 1588 1596
Wind_Speed
8 10 8 11 10 11 12 12 9 9 12 11 10 12 9 9 10 12 10 14 14 12 12 15 15 11 7 6 12 17 19 19 21 17 18 16 17 16 13 13 13 11 8
9 10 11 11 11 12 12 13 11 13 13 11 12 12 12 12 11 12 13 12 14 11 9 12 16 17 13 11 12 15 20 21 22 22 17 20 18 18 15 14 15 11 8
16 14 13 13 14 14 16 18 19 18 14 11 10 11 14 12 13 12 13 13 10 12 11 9 12 18 19 16 14 13 17 23 23 24 20 22 21 19 15 15 16 12 10
19 18 17 14 15 17 18 18 17 15 14 13 13 14 14 12 13 14 17 16 13 9 13 12 8 14 19 20 16 13 13 21 25 25 25 21 25 21 17 17 16 14 11
19 20 21 19 19 21 21 21 19 19 17 17 17 15 16 16 16 15 14 15 15 15 16 13 11 10 16 19 19 17 14 17 25 26 27 23 25 24 19 18 17 15 13
23 22 22 20 21 22 22 21 22 21 20 18 17 17 17 14 16 16 15 17 17 15 16 14 17 12 10 15 18 20 17 15 21 26 29 25 23 26 22 20 19 17 15
20 24 25 26 24 24 23 22 22 23 25 22 20 21 21 21 22 24 22 19 17 15 16 16 15 14 9 9 16 20 20 15 13 25 28 29 24 26 25 23 22 19 16
27 27 29 28 26 24 23 23 26 26 21 20 21 19 20 18 20 22 20 16 15 17 14 16 15 13 12 9 8 16 21 18 12 17 28 31 26 25 28 26 23 22 18
24 22 22 23 24 25 26 26 24 25 28 27 21 21 11 11 15 16 18 19 12 14 16 12 15 14 15 13 7 9 18 21 19 16 20 29 29 27 31 27 23 20 20
28 28 29 30 29 28 29 29 28 25 25 27 24 24 23 17 5 4 10 7 16 15 11 11 13 13 14 17 10 10 12 21 20 19 22 27 31 29 33 29 25 23 21
27 27 28 30 33 34 35 33 30 27 28 29 25 24 22 24 24 12 5 9 8 12 7 11 12 13 13 15 19 13 12 11 21 23 25 27 35 32 35 31 29 26 23
24 23 22 25 28 32 34 34 33 35 32 27 28 27 25 22 26 24 20 11 9 11 9 10 11 12 10 13 16 13 14 14 16 21 26 33 36 29 35 33 31 27 24
25 25 27 28 27 22 29 33 32 32 34 35 29 27 26 27 23 23 20 19 10 5 8 11 9 10 11 10 14 15 15 15 15 18 26 36 35 28 37 33 32 31 26
27 28 29 32 31 31 30 21 34 34 33 34 35 33 27 25 23 25 21 17 12 12 10 5 8 10 11 10 10 12 15 17 16 16 25 36 35 29 35 37 33 31 27
38 44 47 49 43 39 39 37 24 30 32 32 33 33 33 27 23 26 27 23 15 10 11 12 8 11 11 12 13 13 13 9 11 15 24 36 33 35 36 37 37 33 29
33 26 24 23 23 30 43 39 39 29 31 32 31 32 33 28 26 25 25 28 24 17 12 9 13 8 15 11 12 13 11 7 8 13 24 36 28 29 36 33 38 36 30
21 20 20 19 18 16 19 35 33 45 30 32 34 34 33 34 27 30 25 25 29 19 9 4 11 11 16 11 8 9 9 9 9 13 24 31 28 27 38 34 39 34 29
19 20 20 20 17 17 14 21 29 34 36 42 44 30 31 38 39 33 28 28 28 20 8 6 11 14 15 12 6 13 10 4 1 16 28 28 26 28 39 37 28 28 27
20 20 20 20 19 18 18 18 20 25 29 39 42 40 40 36 38 37 29 27 24 25 13 9 7 10 13 11 6 12 12 10 11 21 32 23 22 26 39 23 26 23 25
20 20 18 17 18 21 20 19 20 19 20 20 26 33 33 37 40 35 27 29 26 25 14 11 13 15 13 12 10 11 9 13 18 28 31 25 22 31 36 30 26 31 26
19 17 16 16 14 14 17 18 19 20 19 21 27 29 30 35 36 37 32 32 28 25 16 13 17 16 13 14 15 14 10 11 25 24 30 26 31 38 33 29 33 32 30
20 17 15 12 10 7 12 15 18 19 20 20 22 20 26 32 32 40 31 32 29 27 16 19 20 14 10 12 15 13 14 23 24 30 33 44 32 34 31 30 35 31 34
18 17 16 12 9 7 8 11 16 15 18 20 21 23 23 26 35 37 32 31 28 25 22 22 21 13 12 14 11 12 17 20 28 36 44 40 34 38 30 36 30 33 32
19 18 17 16 15 13 13 14 15 15 16 18 21 21 23 28 34 34 34 32 29 28 29 21 16 7 16 15 10 14 28 27 30 32 39 42 41 40 40 30 31 33 29
19 20 19 19 18 16 16 16 15 16 17 16 22 22 21 30 37 33 36 33 30 30 27 18 8 7 15 16 11 25 26 36 33 36 42 41 44 46 39 33 35 32 26
19 19 19 19 18 18 15 14 15 18 19 16 22 23 21 30 33 31 31 32 31 30 21 13 9 12 15 14 21 22 32 38 36 39 42 45 45 41 43 39 38 33 27
Wind_Direction
239 267 268 269 264 263 269 285 291 282 279 288 305 301 286 277 266 252 254 280 292 291 263 237 230 223 220 239 225 216 211 203 198 192 193 198 180 172 177 177 173 173 172
258 257 259 274 281 279 272 268 263 259 245 242 249 280 290 274 248 253 250 267 281 302 287 260 236 233 221 219 222 214 210 204 200 196 189 191 188 177 179 180 178 177 174
283 282 278 273 273 261 264 264 269 268 281 290 284 283 289 284 283 274 272 267 269 289 302 283 247 236 234 227 219 221 208 204 201 198 197 191 188 183 183 184 180 179 176
283 283 283 279 277 274 265 260 262 267 264 264 266 262 258 266 275 271 270 273 257 250 275 286 268 241 239 232 225 220 212 206 202 199 198 192 193 187 186 183 182 182 181
275 273 271 269 267 263 264 260 256 257 255 257 257 259 267 267 253 256 272 280 274 258 242 261 270 255 238 237 227 218 218 203 203 200 198 198 194 189 189 184 187 186 183
268 265 269 271 275 269 255 254 257 252 254 253 258 259 253 258 264 258 256 259 267 272 267 248 255 257 251 240 231 221 219 212 202 201 199 199 195 191 190 186 189 188 188
276 271 265 264 262 262 259 251 252 253 249 248 256 260 267 266 257 258 253 246 249 258 271 265 247 248 251 252 234 225 219 207 202 202 200 199 196 193 191 188 191 188 191
278 272 268 263 256 249 252 256 249 243 246 248 249 257 267 272 270 263 253 253 241 245 246 270 260 230 222 244 250 229 219 206 191 203 204 198 195 192 192 189 193 187 189
275 276 275 270 259 247 249 251 252 245 244 241 242 244 252 256 270 249 221 238 233 247 228 234 263 236 213 215 253 240 222 209 189 197 205 200 194 194 192 189 192 185 187
275 271 268 265 263 259 257 251 248 246 243 241 238 238 242 239 270 198 230 256 210 233 227 227 248 258 221 203 202 255 226 214 204 191 194 193 190 195 189 190 188 190 186
280 277 274 271 266 260 259 253 245 244 245 240 235 234 234 239 241 252 250 212 226 234 230 238 213 255 228 209 191 228 238 213 210 211 197 190 187 191 185 192 187 193 184
287 278 277 271 266 261 253 251 249 243 238 237 236 231 234 231 226 234 244 244 244 237 212 235 222 227 230 215 201 218 238 237 222 217 211 187 189 190 183 193 188 191 182
286 284 277 271 263 260 257 247 244 243 236 235 230 231 230 233 226 222 233 245 257 202 209 234 225 223 202 225 206 205 228 239 231 220 208 193 185 188 184 194 189 187 186
274 270 265 261 256 253 241 243 243 237 232 231 232 227 226 227 227 217 213 223 240 246 233 239 222 204 192 219 214 226 237 244 237 220 205 190 185 189 191 195 189 183 182
275 275 273 270 258 244 240 235 240 231 230 225 224 225 222 223 223 219 223 216 217 249 243 221 208 198 192 209 213 224 241 228 221 215 198 187 184 197 189 192 185 182 184
295 295 294 290 281 265 248 237 234 231 224 214 216 218 214 218 219 218 220 217 216 230 282 239 200 223 178 209 230 231 221 209 213 209 192 185 190 195 195 192 191 182 176
306 305 304 300 292 281 261 237 234 230 229 217 216 217 214 210 212 218 217 217 214 223 253 356 204 201 180 186 223 186 184 225 208 196 180 182 188 191 190 190 190 176 175
313 306 301 295 288 272 271 239 237 236 237 232 232 224 214 210 215 226 216 213 213 207 216 231 165 191 185 179 219 179 154 101 204 180 171 179 188 190 185 177 164 167 171
322 309 297 287 280 268 257 249 240 233 235 230 228 224 224 216 215 214 221 215 210 204 207 209 200 190 178 182 203 172 150 183 191 168 168 171 181 186 182 175 165 167 168
324 316 305 296 275 262 253 241 232 230 225 216 218 212 210 216 207 208 200 209 208 203 201 197 185 174 181 183 190 167 175 194 186 162 167 167 164 175 170 162 164 176 175
336 335 321 309 295 267 247 233 217 214 209 211 211 211 211 210 204 202 204 208 198 198 184 187 185 183 185 198 182 170 188 207 165 162 165 166 162 175 163 166 179 181 175
359 0 353 339 328 264 233 214 201 197 195 192 192 193 203 209 200 201 192 201 194 188 185 183 170 179 195 196 168 175 203 157 163 164 149 162 160 165 169 178 171 167 170
9 14 17 26 41 74 146 169 178 181 185 186 186 182 184 183 184 180 182 180 185 184 174 174 183 201 202 190 165 192 181 166 164 163 164 156 165 167 171 161 155 162 165
30 34 43 54 67 82 110 128 146 156 165 172 175 181 184 180 182 183 184 176 179 179 177 185 202 225 185 175 195 187 173 170 161 163 169 155 167 163 151 151 164 161 162
42 49 55 64 75 89 101 110 128 142 156 160 173 176 177 178 175 159 169 173 178 182 186 187 181 163 175 189 174 172 182 174 161 164 162 159 149 151 155 156 160 162 162
51 54 65 71 73 90 98 112 127 138 134 142 149 164 164 166 172 172 168 173 177 184 186 174 153 153 175 184 173 178 174 180 166 166 162 158 160 154 149 158 159 156 162